STARLINK-1909 (47550 NORAD) Tracking and Keplerian Element Data

This shows tracking and keplerian element data for the satellite.

Feedback or suggestion? Click here.




ElementValue
Catalog47550
NameSTARLINK-1909
Epoch Orbit177
Epoch Day101.91668981
Epoch Year2021
RAAN157.5156
Inclination53.0539
Eccentricity0.0003857
Argument of Perigee20.8142
Mean Anonmoly239.9504
Mean Motion15.62795436
Decay Rate0.00033064
L11 47550U 21009C 21101.91668981 .00033064 00000-0 36479-3 0 9994
L22 47550 53.0539 157.5156 0003857 20.8142 239.9504 15.62795436 1773

Live tracking and technical data element details for STARLINK-1909 (NORAD 47550). STARLINK-1909 can be tracked NOW for your location showing map with azimuth and elevation plus other details from your city location.

Track the satellite on the map from your city or location and see movement details for azimuth, elevation, latitude, longitude, range, height, and movement on the map or in text.







IsCatalogInMostPopularTable: catalog: 47550, numindb: 15
Update: records affected: 1



GetName: 47550 STARLINK-1909

Hit Count: updated at: Tue, 13 Apr 2021 04:17:35 GMT